Location: Morgantown
(40.9734°N, 80.6323°W)
Time: 13:29:30
(UTC+00:00)

TIGRISAT - Visible Passes

Search period start: 24 September 2021 00:00
Search period end: 04 October 2021 00:00
Orbit: 605 x 687 km, 97.7° (Epoch: 23 September)

Date Brightness Start Highest point End Pass type
(mag) Time Alt. Az. Time Alt. Az. Time Alt. Az.
24 Sep ? 00:13:48 10° NNE 00:18:25 54° E 00:22:58 10° S visible
24 Sep ? 01:51:41 10° NNW 01:54:36 17° WNW 01:57:31 10° WSW visible
25 Sep ? 00:39:09 10° N 00:43:53 81° WNW 00:48:31 10° SSW visible
26 Sep ? 01:04:46 10° N 01:09:14 44° WNW 01:13:37 10° SW visible
26 Sep ? 10:27:52 10° E 10:30:36 16° ENE 10:33:21 10° NNE visible
26 Sep ? 23:53:45 10° NNE 23:58:01 33° E 00:02:11 10° SSE visible
27 Sep ? 01:30:41 10° NNW 01:34:29 25° WNW 01:38:14 10° WSW visible
28 Sep ? 00:18:52 10° NNE 00:23:32 63° E 00:28:06 10° S visible
28 Sep ? 01:57:06 10° NNW 01:59:38 15° WNW 02:02:08 10° W visible
29 Sep ? 00:44:17 10° N 00:48:58 71° WNW 00:53:33 10° SSW visible
29 Sep ? 10:09:56 10° ENE 10:10:31 10° ENE 10:11:06 10° NE visible
29 Sep ? 23:33:58 10° NE 23:37:31 21° E 23:41:01 10° SE visible
30 Sep ? 01:09:57 10° N 01:14:17 38° WNW 01:18:33 10° SW visible
30 Sep ? 10:32:31 10° ESE 10:35:36 18° ENE 10:38:44 10° NNE visible
30 Sep ? 23:58:45 10° NNE 00:03:07 38° E 00:07:24 10° SSE visible
01 Oct ? 01:35:56 10° NNW 01:39:31 22° WNW 01:43:02 10° WSW visible
02 Oct ? 00:23:57 10° NNE 00:28:38 72° E 00:33:12 10° S visible
02 Oct ? 02:02:38 10° NW 02:04:38 13° WNW 02:06:37 10° W visible
03 Oct ? 00:49:25 10° N 00:54:02 61° WNW 00:58:32 10° SSW visible
03 Oct ? 10:13:48 10° E 10:15:30 12° ENE 10:17:13 10° NE visible
03 Oct ? 23:38:53 10° NE 23:42:38 24° E 23:46:19 10° SSE visible
